Location: Plymouth
(43.7570°N, 71.6890°W)
Time: 00:37:36
(UTC-04:00)

Amateur Radio Satellites - All Passes

Search period start: 29 July 2014 00:07
Search period end: 30 July 2014 00:07
Location: Plymouth, 43.7570°N, 71.6890°W

Satellite Date Start Highest point End Downlink Frequencies (MHz)
Time Altitude Azimuth
ISS 29 Jul 00:31:31 00:34:51 70° 331° (NNW) 00:38:12 145.800 FM
UOSAT-12 29 Jul 00:41:16 00:44:23 18° 250° (WSW) 00:47:27 437.025 FM, 437.400 FM
Sapphire 29 Jul 00:45:38 00:50:53 54° 115° (ESE) 00:56:10 437.095 MHz 1200 baud AX-25 AFSK
RS-15 29 Jul 00:49:58 00:58:12 25° 258° (WSW) 01:06:42 29.354 - 29.394 USB, Beacon 29.352 USB
AO-40 29 Jul 00:57:06 04:08:29 24° 132° (SE) 05:30:59 Beacon 2401.320
Oscar 19 29 Jul 01:11:29 01:14:26 15° 90° (E) 01:17:23 437.125 CW, 437.150 USB
PCSat 29 Jul 01:18:54 01:24:18 77° 302° (WNW) 01:29:45 145.825 MHz
JAS-1B 29 Jul 01:37:22 01:42:00 15° 79° (E) 01:46:20 435.800 - 435.900 CW/SSB
Oscar 16 29 Jul 01:38:43 01:43:09 28° 95° (E) 01:47:35 437.025 USB, Beacon 2401.1428
ITAMSAT 1 29 Jul 01:59:51 02:03:34 20° 92° (E) 02:07:16 435.822 SSB
ISS 29 Jul 02:09:13 02:12:00 23° 349° (N) 02:14:47 145.800 FM
AO-27 29 Jul 02:18:28 02:22:59 30° 95° (E) 02:27:28 436.795 MHz FM
Uribyol 2 29 Jul 02:18:43 02:23:17 31° 96° (E) 02:27:49 436.500 FM
Sapphire 29 Jul 02:30:04 02:34:37 27° 315° (NW) 02:39:13 437.095 MHz 1200 baud AX-25 AFSK
Gurwin Techsat 1B 29 Jul 02:40:40 02:44:35 21° 92° (E) 02:48:28 435.225 FM
Oscar 19 29 Jul 02:49:08 02:54:17 70° 287° (WNW) 02:59:26 437.125 CW, 437.150 USB
PCSat 29 Jul 03:05:14 03:08:39 17° 323° (NW) 03:12:04 145.825 MHz
AO-Echo 29 Jul 03:06:19 03:11:27 85° 104° (ESE) 03:16:22 ?
Oscar 16 29 Jul 03:17:50 03:22:34 38° 292° (WNW) 03:27:19 437.025 USB, Beacon 2401.1428
OPAL 29 Jul 03:23:00 03:27:45 50° 68° (ENE) 03:32:33 ?
JAS-1B 29 Jul 03:24:57 03:34:28 71° 101° (ESE) 03:42:33 435.800 - 435.900 CW/SSB
ITAMSAT 1 29 Jul 03:38:21 03:43:24 54° 289° (WNW) 03:48:25 435.822 SSB
ISS 29 Jul 03:46:43 03:49:29 23° 10° (N) 03:52:15 145.800 FM
Oscar 10/S400 29 Jul 03:50:41 04:57:49 49° 216° (SW) 11:15:57 145.825 - 145.975 CW/USB, Beacon 145.810 USB
TMSAT-1 29 Jul 03:55:11 04:00:29 70° 102° (ESE) 04:05:45 436.925 FM
AO-27 29 Jul 03:57:49 04:02:32 37° 293° (WNW) 04:07:14 436.795 MHz FM
Uribyol 2 29 Jul 03:58:07 04:02:46 35° 293° (WNW) 04:07:24 436.500 FM
Gurwin Techsat 1B 29 Jul 04:19:42 04:24:53 54° 289° (WNW) 04:30:01 435.225 FM
Oscar 19 29 Jul 04:31:54 04:32:42 10° 305° (NW) 04:33:29 437.125 CW, 437.150 USB
AO-7 29 Jul 04:43:21 04:51:16 45° 100° (E) 04:59:05 29.400 - 29.500 MHz
AO-Echo 29 Jul 04:47:00 04:49:27 14° 302° (WNW) 04:51:52 ?
Uosat F 29 Jul 05:03:11 05:08:12 68° 103° (ESE) 05:13:11 435.120 FM
OPAL 29 Jul 05:03:18 05:06:55 20° 265° (W) 05:10:34 ?
JAS-1B 29 Jul 05:16:04 05:24:07 33° 304° (NW) 05:31:20 435.800 - 435.900 CW/SSB
MaSat-1 29 Jul 05:23:04 05:27:09 22° 47° (NE) 05:31:08 437.345 MHz
ISS 29 Jul 05:23:18 05:26:39 65° 29° (NNE) 05:30:00 145.800 FM
KITSAT 1 29 Jul 05:28:31 05:35:32 34° 108° (ESE) 05:42:35 435.175 FM
TMSAT-1 29 Jul 05:36:26 05:39:50 18° 300° (WNW) 05:43:15 436.925 FM
STRAND 1 29 Jul 05:46:34 05:51:00 30° 66° (ENE) 05:55:26 ?
Hamsat 29 Jul 05:50:10 05:53:04 17° 92° (E) 05:55:58 145.90 MHz
Saudisat 1A 29 Jul 06:30:54 06:32:48 13° 109° (ESE) 06:34:43 436.775 MHz
AO-7 29 Jul 06:36:15 06:44:02 46° 299° (WNW) 06:51:46 29.400 - 29.500 MHz
Uosat F 29 Jul 06:43:19 06:46:26 17° 300° (WNW) 06:49:33 435.120 FM
MaSat-1 29 Jul 06:59:44 07:05:02 69° 246° (WSW) 07:10:02 437.345 MHz
JAS-2 29 Jul 07:00:31 07:06:31 64° 101° (E) 07:11:51 435.800 - 435.900 CW/SSB, 435.910 FM
ISS 29 Jul 07:00:41 07:03:04 18° 226° (SW) 07:05:27 145.800 FM
KITSAT 1 29 Jul 07:22:32 07:30:31 61° 308° (NW) 07:38:33 435.175 FM
Hamsat 29 Jul 07:25:09 07:29:15 45° 288° (WNW) 07:33:22 145.90 MHz
STRAND 1 29 Jul 07:25:21 07:30:04 36° 263° (W) 07:34:49 ?
SO-67 29 Jul 07:47:24 07:50:49 52° 100° (E) 07:54:12 435.3500 MHz FM
Sapphire 29 Jul 07:50:20 07:52:59 14° 33° (NNE) 07:55:38 437.095 MHz 1200 baud AX-25 AFSK
Saudisat 1A 29 Jul 08:07:22 08:11:47 76° 306° (NW) 08:16:14 436.775 MHz
PCSat 29 Jul 08:22:56 08:27:05 22° 42° (NE) 08:31:13 145.825 MHz
AO-7 29 Jul 08:32:10 08:34:42 12° 322° (NW) 08:37:14 29.400 - 29.500 MHz
JAS-2 29 Jul 08:46:40 08:50:56 21° 303° (WNW) 08:54:55 435.800 - 435.900 CW/SSB, 435.910 FM
HO-68 29 Jul 09:06:46 09:13:02 32° 95° (E) 09:19:16 435.675 MHz FM
KITSAT 1 29 Jul 09:21:54 09:27:46 21° 333° (NNW) 09:33:39 435.175 FM
SO-67 29 Jul 09:22:36 09:23:26 11° 296° (WNW) 09:24:16 435.3500 MHz FM
Sapphire 29 Jul 09:32:14 09:37:37 58° 55° (NE) 09:42:57 437.095 MHz 1200 baud AX-25 AFSK
UKube-1 29 Jul 09:40:47 09:44:48 35° 98° (E) 09:48:46 145.840 MHz, 145.915 MHz
Saudisat 1A 29 Jul 09:49:44 09:52:08 14° 326° (NW) 09:54:33 436.775 MHz
PCSat 29 Jul 10:05:39 10:11:05 74° 242° (WSW) 10:16:29 145.825 MHz
Oscar 11 29 Jul 10:25:29 10:29:47 57° 100° (E) 10:34:03 145.825 FM, Beacon 2401.500 USB
FUNcube-1 29 Jul 10:47:49 10:51:41 36° 98° (E) 10:55:35 145.950 - 145.970 MHz USB
HO-68 29 Jul 10:54:07 11:01:00 53° 294° (WNW) 11:07:51 435.675 MHz FM
Sapphire 29 Jul 11:16:33 11:20:36 22° 253° (WSW) 11:24:38 437.095 MHz 1200 baud AX-25 AFSK
SO-50 29 Jul 11:17:17 11:18:21 11° 107° (ESE) 11:19:25 436.795 FM
UKube-1 29 Jul 11:17:22 11:20:49 23° 295° (WNW) 11:24:16 145.840 MHz, 145.915 MHz
KITSAT 1 29 Jul 11:22:50 11:26:56 14° 4° (N) 11:31:01 435.175 FM
Oscar 11 29 Jul 12:03:01 12:05:31 15° 297° (WNW) 12:08:00 145.825 FM, Beacon 2401.500 USB
JAS-1B 29 Jul 12:22:25 12:28:32 20° 47° (NE) 12:34:50 435.800 - 435.900 CW/SSB
FUNcube-1 29 Jul 12:24:46 12:27:53 21° 294° (WNW) 12:31:02 145.950 - 145.970 MHz USB
Oscar 19 29 Jul 12:29:19 12:33:29 26° 64° (ENE) 12:37:41 437.125 CW, 437.150 USB
AO-Echo 29 Jul 12:43:31 12:47:06 19° 61° (ENE) 12:50:40 ?
HO-68 29 Jul 12:45:01 12:47:07 11° 315° (NW) 12:49:12 435.675 MHz FM
SO-50 29 Jul 12:53:41 12:58:09 87° 304° (NW) 13:02:45 436.795 FM
Oscar 16 29 Jul 12:56:54 13:01:46 47° 70° (ENE) 13:06:40 437.025 USB, Beacon 2401.1428
RS-15 29 Jul 13:01:05 13:11:37 51° 112° (ESE) 13:21:57 29.354 - 29.394 USB, Beacon 29.352 USB
UOSAT-12 29 Jul 13:15:02 13:17:08 13° 108° (ESE) 13:19:15 437.025 FM, 437.400 FM
ITAMSAT 1 29 Jul 13:18:51 13:23:32 35° 67° (ENE) 13:28:13 435.822 SSB
KITSAT 1 29 Jul 13:19:07 13:25:45 27° 34° (NNE) 13:32:19 435.175 FM
AO-27 29 Jul 13:37:43 13:42:46 52° 70° (ENE) 13:47:50 436.795 MHz FM
Uribyol 2 29 Jul 13:37:45 13:42:48 54° 71° (ENE) 13:47:51 436.500 FM
TMSAT-1 29 Jul 13:39:49 13:43:17 18° 60° (ENE) 13:46:46 436.925 FM
AO-7 29 Jul 13:55:23 14:00:21 18° 45° (NE) 14:05:19 29.400 - 29.500 MHz
Gurwin Techsat 1B 29 Jul 14:02:47 14:07:37 37° 67° (ENE) 14:12:28 435.225 FM
Oscar 19 29 Jul 14:07:47 14:12:37 42° 262° (W) 14:17:29 437.125 CW, 437.150 USB
JAS-1B 29 Jul 14:08:12 14:17:06 67° 68° (ENE) 14:26:53 435.800 - 435.900 CW/SSB
AO-Echo 29 Jul 14:20:01 14:25:18 68° 258° (WSW) 14:30:38 ?
SO-50 29 Jul 14:36:35 14:39:25 16° 325° (NW) 14:42:18 436.795 FM
Oscar 16 29 Jul 14:37:23 14:41:21 22° 267° (W) 14:45:21 437.025 USB, Beacon 2401.1428
Uosat F 29 Jul 14:41:45 14:44:36 15° 59° (ENE) 14:47:27 435.120 FM
UOSAT-12 29 Jul 14:52:00 14:56:37 79° 305° (NW) 15:01:21 437.025 FM, 437.400 FM
Saudisat 1A 29 Jul 14:54:09 14:57:26 20° 39° (NE) 15:00:41 436.775 MHz
ITAMSAT 1 29 Jul 14:58:24 15:03:01 32° 264° (W) 15:07:39 435.822 SSB
RS-15 29 Jul 15:13:12 15:23:57 54° 316° (NW) 15:34:37 29.354 - 29.394 USB, Beacon 29.352 USB
KITSAT 1 29 Jul 15:14:14 15:22:23 84° 57° (ENE) 15:30:27 435.175 FM
TMSAT-1 29 Jul 15:17:23 15:22:39 69° 258° (WSW) 15:27:58 436.925 FM
AO-27 29 Jul 15:18:41 15:22:35 21° 267° (W) 15:26:30 436.795 MHz FM
Uribyol 2 29 Jul 15:18:49 15:22:35 20° 268° (W) 15:26:23 436.500 FM
OPAL 29 Jul 15:34:03 15:35:25 11° 90° (E) 15:36:47 ?
Gurwin Techsat 1B 29 Jul 15:42:58 15:47:37 31° 265° (W) 15:52:18 435.225 FM
AO-7 29 Jul 15:43:23 15:51:38 67° 66° (ENE) 15:59:54 29.400 - 29.500 MHz
JAS-1B 29 Jul 16:00:12 16:08:07 34° 270° (W) 16:16:49 435.800 - 435.900 CW/SSB
Uosat F 29 Jul 16:17:43 16:22:45 77° 257° (WSW) 16:27:50 435.120 FM
Saudisat 1A 29 Jul 16:33:03 16:37:26 65° 239° (WSW) 16:41:47 436.775 MHz
UOSAT-12 29 Jul 16:34:41 16:37:33 16° 326° (NW) 16:40:27 437.025 FM, 437.400 FM
Hamsat 29 Jul 16:45:42 16:48:08 15° 63° (ENE) 16:50:35 145.90 MHz
OPAL 29 Jul 17:09:52 17:14:58 89° 107° (ESE) 17:20:06 ?
KITSAT 1 29 Jul 17:11:02 17:16:48 22° 257° (WSW) 17:22:34 435.175 FM
JAS-2 29 Jul 17:12:06 17:19:06 39° 66° (ENE) 17:25:39 435.800 - 435.900 CW/SSB, 435.910 FM
RS-15 29 Jul 17:30:49 17:39:32 26° 348° (NNW) 17:48:18 29.354 - 29.394 USB, Beacon 29.352 USB
AO-7 29 Jul 17:37:59 17:44:58 29° 266° (W) 17:52:00 29.400 - 29.500 MHz
Hamsat 29 Jul 18:19:37 18:23:41 52° 260° (W) 18:27:49 145.90 MHz
SO-67 29 Jul 18:22:22 18:25:05 22° 69° (ENE) 18:27:49 435.3500 MHz FM
OPAL 29 Jul 18:50:38 18:53:09 14° 304° (NW) 18:55:41 ?
JAS-2 29 Jul 18:56:28 19:03:57 49° 262° (W) 19:10:59 435.800 - 435.900 CW/SSB, 435.910 FM
STRAND 1 29 Jul 19:34:06 19:39:12 69° 102° (ESE) 19:44:16 ?
HO-68 29 Jul 19:37:14 19:43:11 30° 58° (ENE) 19:49:08 435.675 MHz FM
SO-50 29 Jul 19:44:11 19:47:47 21° 39° (NE) 19:51:25 436.795 FM
RS-15 29 Jul 19:47:13 19:56:34 30° 23° (NNE) 20:06:03 29.354 - 29.394 USB, Beacon 29.352 USB
SO-67 29 Jul 19:55:17 19:58:05 22° 265° (W) 20:00:53 435.3500 MHz FM
UKube-1 29 Jul 20:37:33 20:41:34 37° 69° (ENE) 20:45:36 145.840 MHz, 145.915 MHz
MaSat-1 29 Jul 20:52:14 20:56:05 41° 109° (ESE) 21:00:32 437.345 MHz
STRAND 1 29 Jul 21:14:37 21:17:50 17° 300° (WNW) 21:21:03 ?
Oscar 11 29 Jul 21:21:42 21:25:53 53° 73° (ENE) 21:30:05 145.825 FM, Beacon 2401.500 USB
HO-68 29 Jul 21:23:22 21:30:26 62° 257° (WSW) 21:37:33 435.675 MHz FM
SO-50 29 Jul 21:24:05 21:28:49 70° 238° (WSW) 21:33:36 436.795 FM
UOSAT-12 29 Jul 21:41:00 21:44:42 22° 39° (NE) 21:48:21 437.025 FM, 437.400 FM
FUNcube-1 29 Jul 21:45:39 21:49:34 35° 70° (ENE) 21:53:26 145.950 - 145.970 MHz USB
RS-15 29 Jul 22:00:07 22:11:10 73° 52° (NE) 22:22:35 29.354 - 29.394 USB, Beacon 29.352 USB
UKube-1 29 Jul 22:14:30 22:17:53 22° 266° (W) 22:21:17 145.840 MHz, 145.915 MHz
MaSat-1 29 Jul 22:30:01 22:33:38 25° 311° (NW) 22:37:39 437.345 MHz
Oscar 11 29 Jul 22:59:58 23:02:24 15° 269° (W) 23:04:51 145.825 FM, Beacon 2401.500 USB
PCSat 29 Jul 23:09:56 23:11:16 11° 101° (ESE) 23:12:36 145.825 MHz
UOSAT-12 29 Jul 23:20:35 23:25:17 65° 239° (WSW) 23:29:54 437.025 FM, 437.400 FM
FUNcube-1 29 Jul 23:22:46 23:26:04 21° 266° (W) 23:29:20 145.950 - 145.970 MHz USB
ISS 29 Jul 23:42:43 23:46:02 72° 145° (SE) 23:49:23 145.800 FM
